LRI582 DNMM-DGAA

Flight info

Callsign LRI582
Flight time N/A
Altitude 28000
Route POLTO1Q POLTO UL433 EREKA EREKA1B
Aircraft B77L/H-SDE1E2E3FGHIJ2J3J4J5M1RWXY/LB1D1

Departure

Time 2026-05-01 15:30
Airport Murtala Muhammed International Airport (DNMM)

Arrival

Time N/A
Airport Kotoka International Airport (DGAA)
Time Latitude Longitude Altitude Speed Heading
2026-05-01 15:06 6.56941 3.31759 99 ft 0 kts 89°
2026-05-01 15:20 6.56941 3.31754 99 ft 2 kts 87°
2026-05-01 15:20 6.56938 3.31739 98 ft 2 kts 71°
2026-05-01 15:21 6.56933 3.31726 97 ft 2 kts 59°
2026-05-01 15:21 6.56924 3.31713 96 ft 2 kts 47°
2026-05-01 15:21 6.56913 3.31703 95 ft 2 kts 34°
2026-05-01 15:21 6.56900 3.31696 95 ft 2 kts 22°
2026-05-01 15:22 6.56871 3.31690 94 ft 2 kts 358°
2026-05-01 15:22 6.56856 3.31690 94 ft 2 kts 359°
2026-05-01 15:22 6.56841 3.31690 94 ft 2 kts
2026-05-01 15:23 6.56835 3.31690 95 ft 0 kts
2026-05-01 15:25 6.56844 3.31685 94 ft 4 kts 314°
2026-05-01 15:25 6.56855 3.31601 89 ft 18 kts 278°
2026-05-01 15:25 6.56980 3.31535 86 ft 23 kts 357°
2026-05-01 15:26 6.57149 3.31535 87 ft 24 kts 359°
2026-05-01 15:26 6.57320 3.31534 87 ft 25 kts
2026-05-01 15:26 6.57500 3.31534 87 ft 25 kts 359°
2026-05-01 15:26 6.57684 3.31526 87 ft 26 kts 359°
2026-05-01 15:27 6.57868 3.31526 86 ft 26 kts 360°
2026-05-01 15:27 6.58052 3.31525 83 ft 25 kts 359°
2026-05-01 15:27 6.58234 3.31523 79 ft 26 kts 359°
2026-05-01 15:28 6.58606 3.31518 73 ft 24 kts 359°
2026-05-01 15:28 6.58736 3.31514 74 ft 14 kts 356°
2026-05-01 15:28 6.58803 3.31465 77 ft 11 kts 285°
2026-05-01 15:29 6.58760 3.31344 82 ft 13 kts 216°
2026-05-01 15:29 6.58564 3.31319 78 ft 56 kts 180°
2026-05-01 15:29 6.56775 3.31340 146 ft 184 kts 180°
2026-05-01 15:30 6.54103 3.31241 1921 ft 189 kts 181°
2026-05-01 15:31 6.51304 3.27338 4012 ft 236 kts 285°
2026-05-01 15:31 6.51474 3.23883 5164 ft 264 kts 269°
2026-05-01 15:32 6.51310 3.20028 6368 ft 289 kts 269°
2026-05-01 15:32 6.51106 3.15862 7759 ft 304 kts 269°
2026-05-01 15:33 6.50769 3.09381 8759 ft 312 kts 269°
2026-05-01 15:34 6.50451 3.02688 10439 ft 330 kts 269°